This is the latest recevied weather packets stored in our database for station/object K1LVA. If no packets are shown the sender has not sent any weather packets the latest 10 day(s).
| Time | Temp. | Humidity | Pressure | Rain* | Wind** | Luminosity | Snow |
|---|---|---|---|---|---|---|---|
| 1778182527 | 25° C | 82% | 1009.6 hPa | 0 mm | - | 269 W/m² | - |
| 1778182224 | 24.44° C | 83% | 1009.6 hPa | 0 mm | - | 820 W/m² | - |
| 1778181920 | 24.44° C | 83% | 1009.6 hPa | 0 mm | - | 258 W/m² | - |
| 1778181617 | 25° C | 84% | 1009.6 hPa | 0 mm | - | 525 W/m² | - |
| 1778181312 | 25° C | 83% | 1009.5 hPa | 0 mm | - | 681 W/m² | - |
| 1778181009 | 25° C | 88% | 1009.5 hPa | 0 mm | - | 640 W/m² | - |
| 1778180707 | 24.44° C | 89% | 1009.5 hPa | 0 mm | - | 884 W/m² | - |
| 1778180405 | 23.89° C | 92% | 1009.1 hPa | 0 mm | - | 778 W/m² | - |
| 1778180103 | 23.33° C | 94% | 1009.5 hPa | 0 mm | - | 791 W/m² | - |
| 1778179799 | 22.78° C | 96% | 1009.5 hPa | 0 mm | - | 773 W/m² | - |
| 1778179497 | 22.78° C | 98% | 1009.7 hPa | 0 mm | - | 809 W/m² | - |
| 1778179195 | 22.22° C | 99% | 1009.5 hPa | 0 mm | - | 792 W/m² | - |
| 1778178891 | 21.67° C | 99% | 1009.8 hPa | 0 mm | - | 773 W/m² | - |
| 1778178588 | 21.67° C | 99% | 1009.8 hPa | 0 mm | - | 306 W/m² | - |
| 1778178284 | 21.67° C | 99% | 1009.7 hPa | 0 mm | - | 841 W/m² | - |
| 1778177980 | 21.11° C | 99% | 1009.6 hPa | 0 mm | - | 851 W/m² | - |
| 1778177677 | 21.11° C | 99% | 1009.7 hPa | 0 mm | - | 1011 W/m² | - |
| 1778177374 | 21.11° C | 99% | 1009.7 hPa | 0 mm | - | 561 W/m² | - |
| 1778177070 | 21.11° C | 99% | 1009.8 hPa | 0 mm | - | 556 W/m² | - |
| 1778176766 | 20.56° C | 99% | 1009.6 hPa | 0 mm | - | 406 W/m² | - |
| 1778176463 | 20.56° C | 99% | 1009.9 hPa | 0 mm | - | 304 W/m² | - |
| 1778176161 | 20.56° C | 99% | 1009.3 hPa | 0 mm | - | 112 W/m² | - |
| 1778175858 | 20.56° C | 99% | 1009.5 hPa | 0 mm | - | 51 W/m² | - |
| 1778175556 | 20.56° C | 99% | 1009.6 hPa | 0 mm | - | 65 W/m² | - |
| 1778175252 | 20.56° C | 99% | 1009.7 hPa | 1.78 mm | - | 29 W/m² | - |
* Rain latest hour (hover to see other rain measurements)
** Current wind speed in m/s (hover to see current wind gust speed)